Year,Month,Day,Hour,Minute,Value (Times are PST for windspeed in km/hr)
2007,06,10,00,00,8.00
2007,06,10,00,01,5.00
2007,06,10,00,02,3.00
2007,06,10,00,03,6.00
2007,06,10,00,04,3.80
2007,06,10,00,05,6.00
2007,06,10,00,06,7.10
2007,06,10,00,07,3.20
2007,06,10,00,08,1.60
2007,06,10,00,09,3.50
2007,06,10,00,10,4.80
2007,06,10,00,11,4.70
2007,06,10,00,12,5.20
2007,06,10,00,13,8.90
2007,06,10,00,14,8.40
2007,06,10,00,15,6.50
2007,06,10,00,16,6.40
2007,06,10,00,17,6.00
2007,06,10,00,18,8.00
2007,06,10,00,19,4.50
2007,06,10,00,20,3.30
2007,06,10,00,21,1.10
2007,06,10,00,22,0.50
2007,06,10,00,23,1.90
2007,06,10,00,24,2.50
2007,06,10,00,25,0.20
2007,06,10,00,26,2.00
2007,06,10,00,27,2.90
2007,06,10,00,28,2.50
2007,06,10,00,29,3.80
2007,06,10,00,30,7.20
2007,06,10,00,31,2.00
2007,06,10,00,32,1.40
2007,06,10,00,33,0.20
2007,06,10,00,34,0.00
2007,06,10,00,35,2.50
2007,06,10,00,36,2.20
2007,06,10,00,37,2.60
2007,06,10,00,38,1.40
2007,06,10,00,39,1.00
2007,06,10,00,40,2.30
2007,06,10,00,41,2.40
2007,06,10,00,42,2.70
2007,06,10,00,43,5.80
2007,06,10,00,44,7.10
2007,06,10,00,45,1.30
2007,06,10,00,46,2.20
2007,06,10,00,47,4.70
2007,06,10,00,48,5.90
2007,06,10,00,49,2.30
2007,06,10,00,50,1.30
2007,06,10,00,51,2.60
2007,06,10,00,52,0.70
2007,06,10,00,53,0.50
2007,06,10,00,54,0.70
2007,06,10,00,55,0.50
2007,06,10,00,56,0.10
2007,06,10,00,57,2.60
2007,06,10,00,58,2.40
2007,06,10,00,59,3.50
2007,06,10,01,00,0.20
2007,06,10,01,01,1.70
2007,06,10,01,02,2.40
2007,06,10,01,03,1.60
2007,06,10,01,04,0.00
2007,06,10,01,05,0.50
2007,06,10,01,06,0.70
2007,06,10,01,07,0.00
2007,06,10,01,08,0.00
2007,06,10,01,09,2.30
2007,06,10,01,10,2.50
2007,06,10,01,11,1.70
2007,06,10,01,12,2.20
2007,06,10,01,13,1.60
2007,06,10,01,14,1.80
2007,06,10,01,15,1.00
2007,06,10,01,16,0.90
2007,06,10,01,17,2.30
2007,06,10,01,18,0.90
2007,06,10,01,19,0.90
2007,06,10,01,20,0.20
2007,06,10,01,21,0.00
2007,06,10,01,22,0.60
2007,06,10,01,23,2.20
2007,06,10,01,24,1.70
2007,06,10,01,25,0.00
2007,06,10,01,26,0.00
2007,06,10,01,27,1.90
2007,06,10,01,28,0.50
2007,06,10,01,29,1.70
2007,06,10,01,30,1.30
2007,06,10,01,31,0.80
2007,06,10,01,32,0.90
2007,06,10,01,33,2.80
2007,06,10,01,34,3.50
2007,06,10,01,35,4.20
2007,06,10,01,36,1.00
2007,06,10,01,37,1.30
2007,06,10,01,38,1.60
2007,06,10,01,39,2.20
2007,06,10,01,40,1.00
2007,06,10,01,41,0.60
2007,06,10,01,42,4.80
2007,06,10,01,43,4.10
2007,06,10,01,44,3.30
2007,06,10,01,45,2.80
2007,06,10,01,46,2.60
2007,06,10,01,47,3.50
2007,06,10,01,48,2.20
2007,06,10,01,49,6.60
2007,06,10,01,50,5.60
2007,06,10,01,51,2.70
2007,06,10,01,52,2.30
2007,06,10,01,53,2.20
2007,06,10,01,54,3.00
2007,06,10,01,55,0.40
2007,06,10,01,56,0.00
2007,06,10,01,57,0.00
2007,06,10,01,58,0.20
2007,06,10,01,59,0.60
2007,06,10,02,00,0.90
2007,06,10,02,01,2.60
2007,06,10,02,02,2.50
2007,06,10,02,03,0.20
2007,06,10,02,04,0.20
2007,06,10,02,05,2.30
2007,06,10,02,06,1.40
2007,06,10,02,07,0.10
2007,06,10,02,08,0.60
2007,06,10,02,09,0.40
2007,06,10,02,10,0.50
2007,06,10,02,11,4.90
2007,06,10,02,12,2.20
2007,06,10,02,13,3.80
2007,06,10,02,14,1.50
2007,06,10,02,15,0.60
2007,06,10,02,16,0.10
2007,06,10,02,17,0.00
2007,06,10,02,18,0.10
2007,06,10,02,19,0.20
2007,06,10,02,20,1.60
2007,06,10,02,21,2.10
2007,06,10,02,22,0.30
2007,06,10,02,23,0.00
2007,06,10,02,24,0.00
2007,06,10,02,25,0.00
2007,06,10,02,26,0.00
2007,06,10,02,27,1.70
2007,06,10,02,28,1.40
2007,06,10,02,29,0.70
2007,06,10,02,30,3.90
2007,06,10,02,31,2.20
2007,06,10,02,32,1.00
2007,06,10,02,33,1.60
2007,06,10,02,34,2.30
2007,06,10,02,35,0.10
2007,06,10,02,36,1.20
2007,06,10,02,37,1.10
2007,06,10,02,38,2.40
2007,06,10,02,39,3.30
2007,06,10,02,40,0.90
2007,06,10,02,41,0.00
2007,06,10,02,42,0.00
2007,06,10,02,43,0.00
2007,06,10,02,44,2.90
2007,06,10,02,45,5.50
2007,06,10,02,46,3.70
2007,06,10,02,47,3.40
2007,06,10,02,48,2.70
2007,06,10,02,49,1.50
2007,06,10,02,50,4.50
2007,06,10,02,51,5.10
2007,06,10,02,52,5.40
2007,06,10,02,53,4.70
2007,06,10,02,54,1.40
2007,06,10,02,55,1.90
2007,06,10,02,56,2.20
2007,06,10,02,57,2.30
2007,06,10,02,58,1.90
2007,06,10,02,59,1.50
2007,06,10,03,00,0.50
2007,06,10,03,01,2.50
2007,06,10,03,02,4.40
2007,06,10,03,03,5.00
2007,06,10,03,04,2.40
2007,06,10,03,05,5.30
2007,06,10,03,06,5.70
2007,06,10,03,07,2.90
2007,06,10,03,08,5.00
2007,06,10,03,09,4.60
2007,06,10,03,10,5.50
2007,06,10,03,11,4.70
2007,06,10,03,12,4.40
2007,06,10,03,13,6.40
2007,06,10,03,14,6.50
2007,06,10,03,15,6.50
2007,06,10,03,16,7.20
2007,06,10,03,17,3.10
2007,06,10,03,18,0.60
2007,06,10,03,19,0.30
2007,06,10,03,20,0.00
2007,06,10,03,21,0.70
2007,06,10,03,22,0.80
2007,06,10,03,23,2.10
2007,06,10,03,24,0.70
2007,06,10,03,25,0.80
2007,06,10,03,26,1.50
2007,06,10,03,27,6.00
2007,06,10,03,28,8.40
2007,06,10,03,29,7.50
2007,06,10,03,30,2.80
2007,06,10,03,31,3.60
2007,06,10,03,32,4.60
2007,06,10,03,33,5.80
2007,06,10,03,34,5.80
2007,06,10,03,35,7.00
2007,06,10,03,36,8.10
2007,06,10,03,37,8.20
2007,06,10,03,38,6.00
2007,06,10,03,39,5.40
2007,06,10,03,40,3.10
2007,06,10,03,41,4.40
2007,06,10,03,42,4.40
2007,06,10,03,43,4.50
2007,06,10,03,44,7.10
2007,06,10,03,45,4.70
2007,06,10,03,46,4.10
2007,06,10,03,47,1.70
2007,06,10,03,48,1.90
2007,06,10,03,49,1.20
2007,06,10,03,50,0.10
2007,06,10,03,51,1.40
2007,06,10,03,52,2.50
2007,06,10,03,53,1.80
2007,06,10,03,54,1.20
2007,06,10,03,55,0.20
2007,06,10,03,56,0.00
2007,06,10,03,57,0.40
2007,06,10,03,58,1.90
2007,06,10,03,59,3.30
2007,06,10,04,00,3.90
2007,06,10,04,01,2.70
2007,06,10,04,02,3.40
2007,06,10,04,03,3.10
2007,06,10,04,04,1.90
2007,06,10,04,05,2.30
2007,06,10,04,06,3.90
2007,06,10,04,07,1.30
2007,06,10,04,08,2.80
2007,06,10,04,09,7.20
2007,06,10,04,10,5.50
2007,06,10,04,11,8.90
2007,06,10,04,12,5.90
2007,06,10,04,13,4.90
2007,06,10,04,14,4.60
2007,06,10,04,15,3.90
2007,06,10,04,16,5.20
2007,06,10,04,17,4.30
2007,06,10,04,18,3.90
2007,06,10,04,19,1.90
2007,06,10,04,20,4.00
2007,06,10,04,21,7.30
2007,06,10,04,22,9.90
2007,06,10,04,23,8.50
2007,06,10,04,24,7.20
2007,06,10,04,25,9.10
2007,06,10,04,26,6.80
2007,06,10,04,27,7.60
2007,06,10,04,28,4.80
2007,06,10,04,29,7.20
2007,06,10,04,30,5.10
2007,06,10,04,31,3.60
2007,06,10,04,32,4.90
2007,06,10,04,33,3.00
2007,06,10,04,34,0.50
2007,06,10,04,35,0.10
2007,06,10,04,36,0.40
2007,06,10,04,37,0.10
2007,06,10,04,38,0.00
2007,06,10,04,39,1.80
2007,06,10,04,40,2.80
2007,06,10,04,41,1.50
2007,06,10,04,42,0.40
2007,06,10,04,43,0.20
2007,06,10,04,44,0.50
2007,06,10,04,45,0.00
2007,06,10,04,46,0.70
2007,06,10,04,47,0.40
2007,06,10,04,48,2.50
2007,06,10,04,49,2.00
2007,06,10,04,50,1.30
2007,06,10,04,51,1.50
2007,06,10,04,52,0.50
2007,06,10,04,53,0.10
2007,06,10,04,54,0.10
2007,06,10,04,55,1.90
2007,06,10,04,56,0.60
2007,06,10,04,57,0.20
2007,06,10,04,58,1.30
2007,06,10,04,59,1.90
2007,06,10,05,00,0.30
2007,06,10,05,01,0.20
2007,06,10,05,02,0.30
2007,06,10,05,03,1.40
2007,06,10,05,04,0.70
2007,06,10,05,05,0.00
2007,06,10,05,06,0.20
2007,06,10,05,07,0.60
2007,06,10,05,08,0.70
2007,06,10,05,09,0.90
2007,06,10,05,10,0.50
2007,06,10,05,11,1.00
2007,06,10,05,12,1.40
2007,06,10,05,13,0.80
2007,06,10,05,14,0.70
2007,06,10,05,15,0.20
2007,06,10,05,16,1.50
2007,06,10,05,17,0.70
2007,06,10,05,18,0.20
2007,06,10,05,19,2.20
2007,06,10,05,20,0.20
2007,06,10,05,21,0.10
2007,06,10,05,22,0.00
2007,06,10,05,23,0.00
2007,06,10,05,24,0.20
2007,06,10,05,25,0.20
2007,06,10,05,26,0.10
2007,06,10,05,27,0.00
2007,06,10,05,28,0.00
2007,06,10,05,29,0.10
2007,06,10,05,30,0.20
2007,06,10,05,31,0.60
2007,06,10,05,32,0.00
2007,06,10,05,33,2.20
2007,06,10,05,34,1.00
2007,06,10,05,35,1.50
2007,06,10,05,36,2.40
2007,06,10,05,37,0.20
2007,06,10,05,38,2.20
2007,06,10,05,39,0.30
2007,06,10,05,40,0.20
2007,06,10,05,41,0.60
2007,06,10,05,42,2.20
2007,06,10,05,43,2.10
2007,06,10,05,44,3.10
2007,06,10,05,45,2.70
2007,06,10,05,46,3.40
2007,06,10,05,47,1.00
2007,06,10,05,48,2.50
2007,06,10,05,49,1.20
2007,06,10,05,50,2.20
2007,06,10,05,51,3.00
2007,06,10,05,52,0.90
2007,06,10,05,53,1.70
2007,06,10,05,54,1.40
2007,06,10,05,55,1.60
2007,06,10,05,56,0.60
2007,06,10,05,57,0.00
2007,06,10,05,58,0.20
2007,06,10,05,59,0.00
2007,06,10,06,00,0.00
2007,06,10,06,01,0.00
2007,06,10,06,02,0.80
2007,06,10,06,03,0.10
2007,06,10,06,04,0.30
2007,06,10,06,05,0.40
2007,06,10,06,06,2.40
2007,06,10,06,07,1.40
2007,06,10,06,08,0.00
2007,06,10,06,09,0.90
2007,06,10,06,10,0.20
2007,06,10,06,11,0.00
2007,06,10,06,12,0.00
2007,06,10,06,13,0.10
2007,06,10,06,14,0.00
2007,06,10,06,15,0.00
2007,06,10,06,16,0.60
2007,06,10,06,17,0.20
2007,06,10,06,18,0.20
2007,06,10,06,19,0.70
2007,06,10,06,20,0.80
2007,06,10,06,21,0.10
2007,06,10,06,22,0.50
2007,06,10,06,23,1.70
2007,06,10,06,24,2.80
2007,06,10,06,25,0.30
2007,06,10,06,26,0.40
2007,06,10,06,27,0.20
2007,06,10,06,28,0.60
2007,06,10,06,29,3.00
2007,06,10,06,30,1.10
2007,06,10,06,31,1.00
2007,06,10,06,32,0.50
2007,06,10,06,33,1.70
2007,06,10,06,34,0.20
2007,06,10,06,35,0.30
2007,06,10,06,36,1.50
2007,06,10,06,37,2.40
2007,06,10,06,38,1.60
2007,06,10,06,39,0.50
2007,06,10,06,40,0.00
2007,06,10,06,41,0.00
2007,06,10,06,42,0.00
2007,06,10,06,43,0.00
2007,06,10,06,44,0.20
2007,06,10,06,45,0.10
2007,06,10,06,46,0.00
2007,06,10,06,47,1.10
2007,06,10,06,48,0.80
2007,06,10,06,49,0.00
2007,06,10,06,50,0.10
2007,06,10,06,51,2.10
2007,06,10,06,52,0.20
2007,06,10,06,53,0.00
2007,06,10,06,54,0.00
2007,06,10,06,55,1.00
2007,06,10,06,56,1.90
2007,06,10,06,57,2.60
2007,06,10,06,58,3.30
2007,06,10,06,59,1.40
2007,06,10,07,00,0.60
2007,06,10,07,01,3.10
2007,06,10,07,02,0.70
2007,06,10,07,03,0.30
2007,06,10,07,04,0.00
2007,06,10,07,05,1.90
2007,06,10,07,06,2.50
2007,06,10,07,07,1.00
2007,06,10,07,08,1.00
2007,06,10,07,09,4.20
2007,06,10,07,10,1.30
2007,06,10,07,11,0.40
2007,06,10,07,12,0.40
2007,06,10,07,13,0.20
2007,06,10,07,14,1.00
2007,06,10,07,15,0.60
2007,06,10,07,16,3.70
2007,06,10,07,17,1.80
2007,06,10,07,18,1.70
2007,06,10,07,19,0.30
2007,06,10,07,20,0.80
2007,06,10,07,21,2.10
2007,06,10,07,22,1.80
2007,06,10,07,23,1.80
2007,06,10,07,24,0.80
2007,06,10,07,25,0.20
2007,06,10,07,26,1.80
2007,06,10,07,27,0.40
2007,06,10,07,28,0.10
2007,06,10,07,29,4.70
2007,06,10,07,30,0.00
2007,06,10,07,31,1.70
2007,06,10,07,32,1.50
2007,06,10,07,33,0.10
2007,06,10,07,34,0.00
2007,06,10,07,35,0.40
2007,06,10,07,36,0.80
2007,06,10,07,37,2.70
2007,06,10,07,38,2.20
2007,06,10,07,39,5.00
2007,06,10,07,40,2.30
2007,06,10,07,41,2.40
2007,06,10,07,42,1.40
2007,06,10,07,43,0.00
2007,06,10,07,44,0.00
2007,06,10,07,45,0.00
2007,06,10,07,46,0.00
2007,06,10,07,47,0.40
2007,06,10,07,48,4.20
2007,06,10,07,49,4.70
2007,06,10,07,50,6.00
2007,06,10,07,51,3.40
2007,06,10,07,52,3.20
2007,06,10,07,53,1.20
2007,06,10,07,54,1.20
2007,06,10,07,55,0.30
2007,06,10,07,56,0.00
2007,06,10,07,57,0.00
2007,06,10,07,58,0.90
2007,06,10,07,59,0.90
2007,06,10,08,00,1.80
2007,06,10,08,01,0.10
2007,06,10,08,02,0.00
2007,06,10,08,03,0.00
2007,06,10,08,04,0.00
2007,06,10,08,05,0.00
2007,06,10,08,06,0.90
2007,06,10,08,07,0.10
2007,06,10,08,08,0.00
2007,06,10,08,09,0.00
2007,06,10,08,10,0.00
2007,06,10,08,11,0.20
2007,06,10,08,12,0.20
2007,06,10,08,13,0.10
2007,06,10,08,14,0.20
2007,06,10,08,15,2.20
2007,06,10,08,16,0.10
2007,06,10,08,17,0.60
2007,06,10,08,18,0.70
2007,06,10,08,19,0.30
2007,06,10,08,20,0.50
2007,06,10,08,21,0.80
2007,06,10,08,22,1.20
2007,06,10,08,23,0.40
2007,06,10,08,24,2.20
2007,06,10,08,25,1.60
2007,06,10,08,26,2.90
2007,06,10,08,27,1.00
2007,06,10,08,28,0.20
2007,06,10,08,29,0.30
2007,06,10,08,30,0.60
2007,06,10,08,31,2.90
2007,06,10,08,32,1.90
2007,06,10,08,33,1.80
2007,06,10,08,34,0.40
2007,06,10,08,35,4.30
2007,06,10,08,36,3.20
2007,06,10,08,37,2.70
2007,06,10,08,38,1.30
2007,06,10,08,39,1.50
2007,06,10,08,40,0.40
2007,06,10,08,41,2.50
2007,06,10,08,42,4.60
2007,06,10,08,43,1.70
2007,06,10,08,44,3.10
2007,06,10,08,45,4.60
2007,06,10,08,46,3.60
2007,06,10,08,47,3.40
2007,06,10,08,48,2.50
2007,06,10,08,49,3.90
2007,06,10,08,50,1.40
2007,06,10,08,51,5.10
2007,06,10,08,52,3.90
2007,06,10,08,53,1.90
2007,06,10,08,54,1.20
2007,06,10,08,55,2.70
2007,06,10,08,56,6.50
2007,06,10,08,57,4.20
2007,06,10,08,58,5.30
2007,06,10,08,59,3.30
2007,06,10,09,00,0.80
2007,06,10,09,01,6.00
2007,06,10,09,02,4.00
2007,06,10,09,03,3.90
2007,06,10,09,04,2.40
2007,06,10,09,05,3.10
2007,06,10,09,06,4.90
2007,06,10,09,07,3.90
2007,06,10,09,08,3.50
2007,06,10,09,09,3.10
2007,06,10,09,10,2.20
2007,06,10,09,11,4.80
2007,06,10,09,12,5.60
2007,06,10,09,13,1.50
2007,06,10,09,14,4.20
2007,06,10,09,15,1.20
2007,06,10,09,16,4.30
2007,06,10,09,17,1.00
2007,06,10,09,18,4.40
2007,06,10,09,19,3.40
2007,06,10,09,20,3.20
2007,06,10,09,21,1.60
2007,06,10,09,22,4.30
2007,06,10,09,23,3.10
2007,06,10,09,24,3.60
2007,06,10,09,25,5.20
2007,06,10,09,26,2.70
2007,06,10,09,27,3.30
2007,06,10,09,28,2.50
2007,06,10,09,29,3.90
2007,06,10,09,30,4.20
2007,06,10,09,31,1.40
2007,06,10,09,32,1.00
2007,06,10,09,33,4.10
2007,06,10,09,34,1.80
2007,06,10,09,35,1.50
2007,06,10,09,36,2.40
2007,06,10,09,37,4.80
2007,06,10,09,38,2.70
2007,06,10,09,39,1.20
2007,06,10,09,40,2.90
2007,06,10,09,41,0.70
2007,06,10,09,42,7.10
2007,06,10,09,43,5.60
2007,06,10,09,44,1.70
2007,06,10,09,45,3.00
2007,06,10,09,46,2.40
2007,06,10,09,47,5.00
2007,06,10,09,48,2.90
2007,06,10,09,49,4.40
2007,06,10,09,50,5.20
2007,06,10,09,51,7.10
2007,06,10,09,52,6.50
2007,06,10,09,53,4.30
2007,06,10,09,54,5.90
2007,06,10,09,55,4.10
2007,06,10,09,56,5.60
2007,06,10,09,57,4.30
2007,06,10,09,58,4.80
2007,06,10,09,59,1.40
2007,06,10,10,00,2.60
2007,06,10,10,01,4.60
2007,06,10,10,02,1.80
2007,06,10,10,03,1.00
2007,06,10,10,04,3.60
2007,06,10,10,05,7.10
2007,06,10,10,06,4.00
2007,06,10,10,07,7.00
2007,06,10,10,08,3.50
2007,06,10,10,09,2.00
2007,06,10,10,10,1.50
2007,06,10,10,11,4.00
2007,06,10,10,12,4.80
2007,06,10,10,13,5.20
2007,06,10,10,14,6.30
2007,06,10,10,15,4.50
2007,06,10,10,16,4.70
2007,06,10,10,17,3.10
2007,06,10,10,18,5.50
2007,06,10,10,19,3.30
2007,06,10,10,20,4.50
2007,06,10,10,21,4.90
2007,06,10,10,22,1.90
2007,06,10,10,23,3.90
2007,06,10,10,24,6.90
2007,06,10,10,25,5.10
2007,06,10,10,26,3.00
2007,06,10,10,27,1.40
2007,06,10,10,28,6.40
2007,06,10,10,29,2.30
2007,06,10,10,30,1.50
2007,06,10,10,31,2.60
2007,06,10,10,32,0.70
2007,06,10,10,33,1.30
2007,06,10,10,34,3.50
2007,06,10,10,35,3.90
2007,06,10,10,36,3.50
2007,06,10,10,37,0.20
2007,06,10,10,38,1.10
2007,06,10,10,39,4.10
2007,06,10,10,40,3.20
2007,06,10,10,41,3.70
2007,06,10,10,42,0.90
2007,06,10,10,43,2.90
2007,06,10,10,44,3.60
2007,06,10,10,45,0.60
2007,06,10,10,46,2.00
2007,06,10,10,47,4.10
2007,06,10,10,48,3.80
2007,06,10,10,49,3.10
2007,06,10,10,50,7.00
2007,06,10,10,51,3.60
2007,06,10,10,52,2.40
2007,06,10,10,53,0.20
2007,06,10,10,54,2.60
2007,06,10,10,55,1.50
2007,06,10,10,56,2.70
2007,06,10,10,57,1.00
2007,06,10,10,58,1.20
2007,06,10,10,59,3.20
2007,06,10,11,00,2.40
2007,06,10,11,01,3.80
2007,06,10,11,02,2.60
2007,06,10,11,03,2.60
2007,06,10,11,04,2.50
2007,06,10,11,05,2.10
2007,06,10,11,06,1.60
2007,06,10,11,07,1.50
2007,06,10,11,08,1.40
2007,06,10,11,09,2.70
2007,06,10,11,10,3.30
2007,06,10,11,11,2.20
2007,06,10,11,12,2.10
2007,06,10,11,13,4.50
2007,06,10,11,14,6.90
2007,06,10,11,15,6.90
2007,06,10,11,16,4.10
2007,06,10,11,17,3.40
2007,06,10,11,18,2.00
2007,06,10,11,19,2.60
2007,06,10,11,20,2.10
2007,06,10,11,21,1.40
2007,06,10,11,22,5.90
2007,06,10,11,23,2.00
2007,06,10,11,24,2.00
2007,06,10,11,25,0.60
2007,06,10,11,26,0.40
2007,06,10,11,27,3.90
2007,06,10,11,28,9.00
2007,06,10,11,29,8.90
2007,06,10,11,30,6.50
2007,06,10,11,31,5.80
2007,06,10,11,32,8.50
2007,06,10,11,33,14.00
2007,06,10,11,34,4.20
2007,06,10,11,35,8.60
2007,06,10,11,36,10.90
2007,06,10,11,37,11.70
2007,06,10,11,38,8.30
2007,06,10,11,39,9.20
2007,06,10,11,40,8.80
2007,06,10,11,41,6.80
2007,06,10,11,42,9.10
2007,06,10,11,43,9.30
2007,06,10,11,44,4.90
2007,06,10,11,45,6.70
2007,06,10,11,46,4.70
2007,06,10,11,47,5.70
2007,06,10,11,48,4.70
2007,06,10,11,49,9.00
2007,06,10,11,50,6.90
2007,06,10,11,51,6.40
2007,06,10,11,52,7.90
2007,06,10,11,53,7.20
2007,06,10,11,54,6.70
2007,06,10,11,55,2.90
2007,06,10,11,56,2.00
2007,06,10,11,57,1.40
2007,06,10,11,58,3.00
2007,06,10,11,59,5.00
2007,06,10,12,00,7.30
2007,06,10,12,01,10.00
2007,06,10,12,02,2.10
2007,06,10,12,03,4.30
2007,06,10,12,04,3.50
2007,06,10,12,05,1.30
2007,06,10,12,06,5.10
2007,06,10,12,07,4.90
2007,06,10,12,08,6.10
2007,06,10,12,09,3.90
2007,06,10,12,10,7.10
2007,06,10,12,11,7.90
2007,06,10,12,12,2.00
2007,06,10,12,13,4.80
2007,06,10,12,14,12.40
2007,06,10,12,15,13.80
2007,06,10,12,16,4.10
2007,06,10,12,17,3.70
2007,06,10,12,18,5.90
2007,06,10,12,19,12.00
2007,06,10,12,20,5.60
2007,06,10,12,21,6.90
2007,06,10,12,22,6.60
2007,06,10,12,23,10.30
2007,06,10,12,24,6.40
2007,06,10,12,25,8.00
2007,06,10,12,26,6.80
2007,06,10,12,27,13.60
2007,06,10,12,28,13.60
2007,06,10,12,29,14.30
2007,06,10,12,30,8.00
2007,06,10,12,31,6.00
2007,06,10,12,32,8.80
2007,06,10,12,33,2.40
2007,06,10,12,34,7.10
2007,06,10,12,35,5.30
2007,06,10,12,36,11.40
2007,06,10,12,37,15.70
2007,06,10,12,38,9.20
2007,06,10,12,39,7.80
2007,06,10,12,40,10.50
2007,06,10,12,41,8.00
2007,06,10,12,42,8.00
2007,06,10,12,43,6.80
2007,06,10,12,44,9.90
2007,06,10,12,45,7.80
2007,06,10,12,46,5.90
2007,06,10,12,47,13.00
2007,06,10,12,48,13.10
2007,06,10,12,49,8.50
2007,06,10,12,50,6.80
2007,06,10,12,51,6.70
2007,06,10,12,52,12.30
2007,06,10,12,53,12.90
2007,06,10,12,54,8.20
2007,06,10,12,55,8.40
2007,06,10,12,56,14.50
2007,06,10,12,57,14.10
2007,06,10,12,58,10.40
2007,06,10,12,59,11.30
2007,06,10,13,00,8.70
2007,06,10,13,01,9.60
2007,06,10,13,02,9.00
2007,06,10,13,03,12.60
2007,06,10,13,04,9.30
2007,06,10,13,05,9.00
2007,06,10,13,06,7.10
2007,06,10,13,07,8.50
2007,06,10,13,08,9.70
2007,06,10,13,09,7.50
2007,06,10,13,10,6.80
2007,06,10,13,11,9.60
2007,06,10,13,12,11.30
2007,06,10,13,13,6.80
2007,06,10,13,14,4.00
2007,06,10,13,15,6.30
2007,06,10,13,16,14.20
2007,06,10,13,17,10.90
2007,06,10,13,18,8.10
2007,06,10,13,19,7.00
2007,06,10,13,20,5.20
2007,06,10,13,21,5.00
2007,06,10,13,22,5.70
2007,06,10,13,23,11.50
2007,06,10,13,24,7.90
2007,06,10,13,25,7.40
2007,06,10,13,26,12.10
2007,06,10,13,27,7.60
2007,06,10,13,28,12.00
2007,06,10,13,29,5.90
2007,06,10,13,30,7.50
2007,06,10,13,31,4.40
2007,06,10,13,32,7.10
2007,06,10,13,33,8.80
2007,06,10,13,34,10.50
2007,06,10,13,35,8.40
2007,06,10,13,36,12.20
2007,06,10,13,37,12.00
2007,06,10,13,38,11.70
2007,06,10,13,39,11.90
2007,06,10,13,40,18.30
2007,06,10,13,41,8.30
2007,06,10,13,42,9.30
2007,06,10,13,43,12.80
2007,06,10,13,44,18.40
2007,06,10,13,45,18.30
2007,06,10,13,46,14.20
2007,06,10,13,47,12.00
2007,06,10,13,48,12.00
2007,06,10,13,49,16.10
2007,06,10,13,50,17.10
2007,06,10,13,51,11.90
2007,06,10,13,52,4.10
2007,06,10,13,53,13.50
2007,06,10,13,54,17.60
2007,06,10,13,55,16.70
2007,06,10,13,56,23.80
2007,06,10,13,57,25.80
2007,06,10,13,58,10.50
2007,06,10,13,59,16.90
2007,06,10,14,00,21.30
2007,06,10,14,01,16.30
2007,06,10,14,02,13.40
2007,06,10,14,03,24.60
2007,06,10,14,04,21.40
2007,06,10,14,05,16.20
2007,06,10,14,06,11.40
2007,06,10,14,07,10.70
2007,06,10,14,08,9.30
2007,06,10,14,09,12.80
2007,06,10,14,10,8.10
2007,06,10,14,11,5.40
2007,06,10,14,12,7.30
2007,06,10,14,13,7.90
2007,06,10,14,14,11.70
2007,06,10,14,15,10.80
2007,06,10,14,16,9.00
2007,06,10,14,17,6.30
2007,06,10,14,18,8.10
2007,06,10,14,19,5.40
2007,06,10,14,20,6.00
2007,06,10,14,21,7.50
2007,06,10,14,22,11.90
2007,06,10,14,23,4.70
2007,06,10,14,24,11.10
2007,06,10,14,25,10.00
2007,06,10,14,26,10.80
2007,06,10,14,27,11.10
2007,06,10,14,28,8.90
2007,06,10,14,29,12.30
2007,06,10,14,30,6.50
2007,06,10,14,31,8.60
2007,06,10,14,32,8.50
2007,06,10,14,33,13.00
2007,06,10,14,34,14.10
2007,06,10,14,35,13.40
2007,06,10,14,36,9.30
2007,06,10,14,37,5.70
2007,06,10,14,38,9.50
2007,06,10,14,39,10.20
2007,06,10,14,40,12.20
2007,06,10,14,41,5.60
2007,06,10,14,42,5.50
2007,06,10,14,43,10.90
2007,06,10,14,44,13.50
2007,06,10,14,45,7.60
2007,06,10,14,46,7.30
2007,06,10,14,47,12.60
2007,06,10,14,48,11.00
2007,06,10,14,49,9.50
2007,06,10,14,50,17.50
2007,06,10,14,51,9.40
2007,06,10,14,52,12.90
2007,06,10,14,53,10.90
2007,06,10,14,54,9.70
2007,06,10,14,55,12.40
2007,06,10,14,56,15.90
2007,06,10,14,57,7.80
2007,06,10,14,58,7.80
2007,06,10,14,59,10.10
2007,06,10,15,00,14.20
2007,06,10,15,01,17.70
2007,06,10,15,02,15.60
2007,06,10,15,03,12.40
2007,06,10,15,04,20.00
2007,06,10,15,05,8.90
2007,06,10,15,06,17.60
2007,06,10,15,07,13.40
2007,06,10,15,08,11.80
2007,06,10,15,09,10.20
2007,06,10,15,10,9.40
2007,06,10,15,11,8.00
2007,06,10,15,12,17.40
2007,06,10,15,13,15.50
2007,06,10,15,14,17.10
2007,06,10,15,15,14.30
2007,06,10,15,16,17.60
2007,06,10,15,17,12.60
2007,06,10,15,18,6.20
2007,06,10,15,19,5.90
2007,06,10,15,20,6.70
2007,06,10,15,21,3.40
2007,06,10,15,22,8.00
2007,06,10,15,23,4.30
2007,06,10,15,24,7.60
2007,06,10,15,25,7.70
2007,06,10,15,26,3.20
2007,06,10,15,27,6.10
2007,06,10,15,28,10.40
2007,06,10,15,29,8.90
2007,06,10,15,30,7.80
2007,06,10,15,31,5.60
2007,06,10,15,32,11.00
2007,06,10,15,33,11.20
2007,06,10,15,34,6.00
2007,06,10,15,35,12.40
2007,06,10,15,36,12.60
2007,06,10,15,37,8.10
2007,06,10,15,38,10.20
2007,06,10,15,39,11.00
2007,06,10,15,40,15.00
2007,06,10,15,41,9.60
2007,06,10,15,42,9.70
2007,06,10,15,43,9.60
2007,06,10,15,44,10.90
2007,06,10,15,45,8.90
2007,06,10,15,46,11.40
2007,06,10,15,47,11.10
2007,06,10,15,48,12.60
2007,06,10,15,49,7.70
2007,06,10,15,50,7.30
2007,06,10,15,51,5.80
2007,06,10,15,52,9.30
2007,06,10,15,53,9.30
2007,06,10,15,54,11.50
2007,06,10,15,55,15.30
2007,06,10,15,56,9.20
2007,06,10,15,57,12.20
2007,06,10,15,58,13.00
2007,06,10,15,59,9.70
2007,06,10,16,00,12.70
2007,06,10,16,01,15.40
2007,06,10,16,02,7.00
2007,06,10,16,03,6.80
2007,06,10,16,04,8.90
2007,06,10,16,05,11.70
2007,06,10,16,06,11.10
2007,06,10,16,07,8.60
2007,06,10,16,08,12.20
2007,06,10,16,09,12.40
2007,06,10,16,10,11.00
2007,06,10,16,11,14.20
2007,06,10,16,12,8.70
2007,06,10,16,13,18.30
2007,06,10,16,14,14.40
2007,06,10,16,15,7.20
2007,06,10,16,16,10.90
2007,06,10,16,17,8.50
2007,06,10,16,18,11.00
2007,06,10,16,19,8.00
2007,06,10,16,20,5.60
2007,06,10,16,21,7.80
2007,06,10,16,22,9.70
2007,06,10,16,23,8.50
2007,06,10,16,24,4.50
2007,06,10,16,25,13.90
2007,06,10,16,26,10.40
2007,06,10,16,27,8.80
2007,06,10,16,28,14.20
2007,06,10,16,29,6.30
2007,06,10,16,30,13.70
2007,06,10,16,31,8.80
2007,06,10,16,32,10.50
2007,06,10,16,33,11.90
2007,06,10,16,34,12.60
2007,06,10,16,35,11.40
2007,06,10,16,36,12.50
2007,06,10,16,37,9.30
2007,06,10,16,38,9.30
2007,06,10,16,39,12.70
2007,06,10,16,40,7.20
2007,06,10,16,41,6.10
2007,06,10,16,42,5.80
2007,06,10,16,43,8.70
2007,06,10,16,44,11.90
2007,06,10,16,45,6.40
2007,06,10,16,46,7.80
2007,06,10,16,47,9.90
2007,06,10,16,48,10.70
2007,06,10,16,49,6.80
2007,06,10,16,50,6.80
2007,06,10,16,51,9.50
2007,06,10,16,52,8.90
2007,06,10,16,53,10.00
2007,06,10,16,54,6.90
2007,06,10,16,55,11.40
2007,06,10,16,56,9.10
2007,06,10,16,57,11.60
2007,06,10,16,58,6.00
2007,06,10,16,59,6.80
2007,06,10,17,00,5.80
2007,06,10,17,01,7.60
2007,06,10,17,02,11.90
2007,06,10,17,03,12.80
2007,06,10,17,04,9.40
2007,06,10,17,05,5.00
2007,06,10,17,06,8.10
2007,06,10,17,07,8.80
2007,06,10,17,08,7.60
2007,06,10,17,09,5.00
2007,06,10,17,10,8.10
2007,06,10,17,11,7.90
2007,06,10,17,12,3.40
2007,06,10,17,13,5.90
2007,06,10,17,14,7.20
2007,06,10,17,15,7.60
2007,06,10,17,16,7.90
2007,06,10,17,17,7.60
2007,06,10,17,18,6.50
2007,06,10,17,19,5.60
2007,06,10,17,20,10.20
2007,06,10,17,21,11.70
2007,06,10,17,22,9.50
2007,06,10,17,23,7.50
2007,06,10,17,24,9.50
2007,06,10,17,25,6.90
2007,06,10,17,26,12.90
2007,06,10,17,27,11.30
2007,06,10,17,28,4.00
2007,06,10,17,29,5.00
2007,06,10,17,30,12.00
2007,06,10,17,31,9.90
2007,06,10,17,32,5.00
2007,06,10,17,33,4.70
2007,06,10,17,34,8.00
2007,06,10,17,35,11.40
2007,06,10,17,36,7.70
2007,06,10,17,37,8.10
2007,06,10,17,38,10.60
2007,06,10,17,39,12.90
2007,06,10,17,40,8.60
2007,06,10,17,41,7.60
2007,06,10,17,42,6.60
2007,06,10,17,43,5.30
2007,06,10,17,44,8.90
2007,06,10,17,45,7.80
2007,06,10,17,46,6.70
2007,06,10,17,47,8.10
2007,06,10,17,48,13.40
2007,06,10,17,49,10.00
2007,06,10,17,50,8.40
2007,06,10,17,51,13.80
2007,06,10,17,52,5.60
2007,06,10,17,53,4.20
2007,06,10,17,54,7.40
2007,06,10,17,55,9.00
2007,06,10,17,56,11.80
2007,06,10,17,57,9.10
2007,06,10,17,58,13.50
2007,06,10,17,59,12.20